Weather History for Moriarty, NM

Change the Weather History Date:

Wednesday, February 6, 2013

  Actual Average (KABQ) Record (KABQ)
Temperature  
Mean Temperature 36 °F 39 °F  
Max Temperature 57 °F 50 °F 73 °F (1918)
Min Temperature 14 °F 29 °F 5 °F (1964)
Degree Days  
Heating Degree Days 30 26  
Month to date heating degree days 157  
Since 1 July heating degree days 2799  
Cooling Degree Days 0 0  
Month to date cooling degree days 0  
Year to date cooling degree days 0  
Moisture  
Dew Point 18 °F    
Average Humidity 50    
Maximum Humidity 81    
Minimum Humidity 23    
Precipitation  
Precipitation 0.00 in 0.01 in 0.28 in (1894)
Month to date precipitation 0.09  
Year to date precipitation 0.47  
Snow  
Snow 0.00 in - - ()
Month to date snowfall  
Since 1 July snowfall  
Snow Depth -    
Sea Level Pressure  
Sea Level Pressure 29.97 in    
Wind  
Wind Speed 6 mph (NW)    
Max Wind Speed 17 mph    
Max Gust Speed 25 mph    
Visibility 10 miles    
Events      
T = Trace of Precipitation, MM = Missing Value Source: NWS Daily Summary

Daily Weather History Graph

Daily Weather History Graph

Search for Another Location

Airport:

Trip Planner

Search our weather history database for the weather conditions in past years. The results will help you decide how hot, cold, wet, or windy it might be!

Date:

Astronomy

Feb. 06, 2013 Rise Set
Actual Time 6:58 AM MST 5:38 PM MST
Civil Twilight 6:32 AM MST 6:04 PM MST
Nautical Twilight 6:02 AM MST 6:34 PM MST
Astronomical Twilight 5:32 AM MST 7:04 PM MST
Moon 3:40 AM MST (2/6) 2:03 PM MST (2/6)
Length of Visible Light 11h 32m
Length of Day
10h 39m
Waning Crescent, 16% of the Moon is Illuminated
Feb 6
Waning Crescent
Feb 10
New
Feb 17
First Quarter
Feb 25
Full
Mar 4
Last Quarter

Hourly Weather History & Observations

Time (MST) Temp. Windchill Dew Point Humidity Pressure Visibility Wind Dir Wind Speed Gust Speed Precip Events Conditions
12:15 AM 22.8 °F 16.7 °F 11.7 °F 62% 30.04 in 10.0 mi North 4.6 mph - N/A   Clear
12:35 AM 21.6 °F 16.8 °F 12.6 °F 68% 30.04 in 10.0 mi North 3.5 mph - N/A   Clear
12:55 AM 19.4 °F 14.3 °F 11.3 °F 71% 30.04 in 10.0 mi North 3.5 mph - N/A   Clear
1:15 AM 20.1 °F 15.2 °F 10.9 °F 68% 30.03 in 10.0 mi NE 3.5 mph - N/A   Clear
1:35 AM 19.4 °F 12.8 °F 10.9 °F 70% 30.03 in 10.0 mi NE 4.6 mph - N/A   Clear
1:55 AM 19.4 °F 14.3 °F 11.1 °F 70% 30.03 in 10.0 mi NE 3.5 mph - N/A   Clear
2:15 AM 19.6 °F 14.5 °F 10.9 °F 69% 30.02 in 10.0 mi North 3.5 mph - N/A   Clear
2:35 AM 17.8 °F 9.6 °F 10.6 °F 73% 30.02 in 10.0 mi North 5.8 mph - N/A   Clear
2:55 AM 17.8 °F 10.9 °F 10.9 °F 75% 30.01 in 10.0 mi NNE 4.6 mph - N/A   Clear
3:15 AM 18.3 °F - 11.7 °F 75% 30.00 in 10.0 mi Calm Calm - N/A   Clear
3:35 AM 18.0 °F 12.7 °F 11.3 °F 75% 29.99 in 10.0 mi North 3.5 mph - N/A   Clear
3:55 AM 17.8 °F 10.9 °F 11.1 °F 75% 29.99 in 10.0 mi NW 4.6 mph - N/A   Clear
4:15 AM 18.9 °F - 11.7 °F 74% 30.00 in 10.0 mi Calm Calm - N/A   Clear
4:35 AM 18.1 °F - 11.1 °F 74% 29.99 in 10.0 mi Calm Calm - N/A   Clear
4:55 AM 15.4 °F 8.1 °F 9.9 °F 79% 29.99 in 10.0 mi ENE 4.6 mph - N/A   Clear
5:15 AM 16.2 °F 9.0 °F 10.4 °F 78% 29.98 in 10.0 mi NE 4.6 mph - N/A   Clear
5:35 AM 15.1 °F 9.4 °F 10.2 °F 81% 29.97 in 10.0 mi NNE 3.5 mph - N/A   Clear
5:55 AM 15.6 °F 10.0 °F 10.6 °F 80% 29.97 in 10.0 mi NNE 3.5 mph - N/A   Clear
6:15 AM 16.0 °F - 10.4 °F 79% 29.97 in 10.0 mi Calm Calm - N/A   Clear
6:35 AM 17.1 °F - 10.6 °F 76% 29.98 in 10.0 mi Calm Calm - N/A   Clear
6:55 AM 17.8 °F - 10.6 °F 73% 29.98 in 10.0 mi Calm Calm - N/A   Clear
7:15 AM 14.7 °F 9.0 °F 9.3 °F 79% 29.99 in 10.0 mi North 3.5 mph - N/A   Clear
7:35 AM 17.4 °F - 11.1 °F 76% 29.99 in 10.0 mi Calm Calm - N/A   Clear
7:55 AM 21.7 °F - 13.5 °F 70% 30.00 in 10.0 mi Calm Calm - N/A   Clear
8:15 AM 25.5 °F - 15.4 °F 66% 30.00 in 10.0 mi Calm Calm - N/A   Clear
8:35 AM 29.3 °F - 16.3 °F 58% 30.00 in 10.0 mi Calm Calm - N/A   Clear
8:55 AM 34.2 °F - 17.1 °F 50% 30.00 in 10.0 mi Calm Calm - N/A   Clear
9:35 AM 39.7 °F - 16.7 °F 39% 30.01 in 10.0 mi Calm Calm - N/A   Clear
9:55 AM 42.1 °F - 16.2 °F 35% 30.00 in 10.0 mi Calm Calm - N/A   Clear
10:15 AM 45.5 °F - 16.9 °F 32% 30.00 in 10.0 mi Calm Calm - N/A   Clear
10:35 AM 48.6 °F - 17.8 °F 29% 29.99 in 10.0 mi Calm Calm - N/A   Clear
10:55 AM 52.3 °F - 18.3 °F 26% 29.99 in 10.0 mi WNW 3.5 mph - N/A   Clear
11:15 AM 56.3 °F - 19.0 °F 23% 29.98 in 10.0 mi West 12.7 mph 20.7 mph N/A   Clear
11:35 AM 55.8 °F - 19.2 °F 24% 29.97 in 10.0 mi NW 15.0 mph 19.6 mph N/A   Clear
11:55 AM 57.2 °F - 20.5 °F 24% 29.96 in 10.0 mi WNW 12.7 mph 20.7 mph N/A   Clear
12:15 PM 57.0 °F - 21.2 °F 25% 29.96 in 10.0 mi West 15.0 mph 20.7 mph N/A   Clear
12:35 PM 57.0 °F - 21.4 °F 25% 29.95 in 10.0 mi West 13.8 mph 19.6 mph N/A   Clear
12:55 PM 56.5 °F - 21.0 °F 25% 29.93 in 10.0 mi West 12.7 mph 20.7 mph N/A   Clear
1:15 PM 57.7 °F - 20.7 °F 24% 29.92 in 10.0 mi West 12.7 mph 19.6 mph N/A   Clear
1:35 PM 55.9 °F - 21.0 °F 26% 29.92 in 10.0 mi West 17.3 mph - N/A   Clear
1:55 PM 56.3 °F - 21.9 °F 26% 29.92 in 10.0 mi West 11.5 mph 19.6 mph N/A   Clear
2:15 PM 55.9 °F - 23.0 °F 28% 29.91 in 10.0 mi West 16.1 mph 19.6 mph N/A   Clear
2:35 PM 56.5 °F - 23.5 °F 28% 29.90 in 10.0 mi West 12.7 mph - N/A   Clear
2:55 PM 57.0 °F - 23.4 °F 27% 29.91 in 10.0 mi West 16.1 mph 25.3 mph N/A   Clear
3:15 PM 55.4 °F - 23.0 °F 29% 29.90 in 10.0 mi West 12.7 mph 21.9 mph N/A   Clear
3:55 PM 56.8 °F - 23.9 °F 28% 29.90 in 10.0 mi West 15.0 mph 19.6 mph N/A   Clear
4:15 PM 54.9 °F - 24.1 °F 30% 29.90 in 10.0 mi West 15.0 mph - N/A   Scattered Clouds
4:35 PM 54.7 °F - 23.9 °F 30% 29.91 in 10.0 mi West 17.3 mph 21.9 mph N/A   Scattered Clouds
4:55 PM 54.1 °F - 24.1 °F 31% 29.92 in 10.0 mi West 12.7 mph 17.3 mph N/A   Mostly Cloudy
5:15 PM 52.5 °F - 23.0 °F 32% 29.92 in 10.0 mi West 16.1 mph - N/A   Scattered Clouds
5:35 PM 51.4 °F - 23.7 °F 34% 29.93 in 10.0 mi West 10.4 mph - N/A   Clear
5:55 PM 50.0 °F - 23.2 °F 35% 29.93 in 10.0 mi West 10.4 mph - N/A   Clear
6:15 PM 47.1 °F - 23.0 °F 39% 29.93 in 10.0 mi West 8.1 mph - N/A   Clear
6:35 PM 46.0 °F 41.4 °F 23.0 °F 40% 29.94 in 10.0 mi West 9.2 mph - N/A   Clear
6:55 PM 44.6 °F 39.2 °F 23.4 °F 43% 29.95 in 10.0 mi West 10.4 mph - N/A   Clear
7:15 PM 43.0 °F 38.2 °F 23.7 °F 47% 29.95 in 10.0 mi WNW 8.1 mph - N/A   Scattered Clouds
7:35 PM 42.6 °F 37.2 °F 23.9 °F 48% 29.95 in 10.0 mi West 9.2 mph - N/A   Scattered Clouds
7:55 PM 44.8 °F 39.0 °F 23.0 °F 42% 29.96 in 10.0 mi WNW 11.5 mph - N/A   Mostly Cloudy
8:15 PM 43.5 °F 37.9 °F 22.1 °F 43% 29.96 in 10.0 mi WNW 10.4 mph - N/A   Scattered Clouds
8:35 PM 43.0 °F 36.8 °F 21.2 °F 42% 29.97 in 10.0 mi West 11.5 mph - N/A   Clear
8:55 PM 38.8 °F 32.6 °F 20.7 °F 48% 29.98 in 10.0 mi NW 9.2 mph - N/A   Clear
9:15 PM 39.0 °F 31.4 °F 21.0 °F 49% 29.98 in 10.0 mi WNW 12.7 mph - N/A   Clear
9:35 PM 40.3 °F 32.6 °F 21.2 °F 47% 29.99 in 10.0 mi WNW 13.8 mph - N/A   Clear
9:55 PM 38.7 °F 30.9 °F 21.4 °F 50% 29.99 in 10.0 mi WNW 12.7 mph - N/A   Clear
10:15 PM 40.1 °F 32.7 °F 21.2 °F 47% 30.00 in 10.0 mi WNW 12.7 mph - N/A   Clear
10:35 PM 39.9 °F 32.5 °F 21.2 °F 47% 29.99 in 10.0 mi NW 12.7 mph - N/A   Clear
10:55 PM 38.1 °F 31.2 °F 20.8 °F 50% 30.00 in 10.0 mi NW 10.4 mph - N/A   Clear
11:35 PM 33.6 °F 30.6 °F 20.3 °F 58% 30.02 in 10.0 mi NNE 3.5 mph - N/A   Clear
11:55 PM 32.5 °F - 19.6 °F 59% 30.02 in 10.0 mi Calm Calm - N/A   Clear